Flag Weather past 2 weeks in Scarborough, Trinidad and Tobago

Now
79 °F

Passing clouds.


Feels Like: 82 °F
Forecast: 78 / 86 °F
Wind: 10 mph from East

Location: Crown Pt./ Scarborou

Current Time: Nov 21, 2014 at 4:41:36 AM

Latest Report: Nov 21, 2014 at 2:00 AM


Visibility: N/A

Pressure: 29.89 "Hg

Humidity: 79%

Dew point: 72 °F

Location of ScarboroughLocation

Historic Weather in Scarborough — Graph

°F

Scarborough temperature yesterday

Maximum temperature yesterday: 84 °F (at 11:00 AM)
Minimum temperature yesterday: 77 °F (at 2:00 AM)
Average temperature yesterday: 79 °F

Past Weeks' High & Low Weather Summary

 TemperatureHumidityPressure
High99 °F (Nov 16, 2:00 PM)100% (Nov 13, 2:00 PM)30.01 "Hg (Nov 13, 2:00 PM)
Low43 °F (Nov 17, 9:00 PM)50% (Nov 16, 2:00 PM)29.80 "Hg (Nov 8, 3:00 PM)
Average80 °F82%29.89 "Hg
* Reported Nov 6 2:00 AM — Nov 21 2:00 AM, Scarborough, Weather by CustomWeather, © 2014

Note: Actual official high and low records may vary slightly from our data, if they occured in-between our weather recording intervals... More about our weather records

Advertising

Scarborough weather history for previous 24 hours

 ConditionsComfort  
Time TempWeatherWind HumidityBarometerVisibility
2:00 AM
Nov 21
79 °FPassing clouds.10 mph79%29.89 "HgN/A
1:00 AM77 °FPassing clouds.No wind89%29.92 "HgN/A
12:00 AM77 °FPassing clouds.No wind89%29.92 "HgN/A
11:00 PM
Nov 20
79 °FSprinkles. Passing clouds.6 mph84%29.92 "HgN/A
10:00 PM79 °FPassing clouds.7 mph79%29.92 "HgN/A
9:00 PM79 °FPassing clouds.12 mph79%29.92 "HgN/A
8:00 PM77 °FLight rain. Passing clouds.7 mph89%29.89 "HgN/A
7:00 PM79 °FRain showers. Passing clouds.6 mph84%29.89 "HgN/A
6:00 PM79 °FSprinkles. Passing clouds.8 mph84%29.86 "HgN/A
2:00 PM79 °FScattered clouds.12 mph89%29.86 "HgN/A
1:00 PM81 °FScattered clouds.12 mph74%29.89 "HgN/A
12:00 PM81 °FPassing clouds.18 mph74%29.92 "HgN/A
11:00 AM84 °FPassing clouds.16 mph70%29.92 "HgN/A
10:00 AM82 °FPassing clouds.12 mph79%29.95 "HgN/A
9:00 AM82 °FPassing clouds.16 mph66%29.95 "HgN/A
7:00 AM77 °FBroken clouds.6 mph79%29.89 "HgN/A
6:00 AM77 °FScattered showers. Partly cloudy.N/A83%29.89 "HgN/A
5:00 AM79 °FPassing clouds.No wind79%29.86 "HgN/A
Weather by CustomWeather, © 2014

See weather overviewHow to use our weather pages